EZY76FU EGGD-LGSK

Flight info

Callsign EZY76FU
Flight time 3h 16m
Altitude 39000
Route YORQI DCT NUCHU L607 BIG L15 MOTOX DCT RUCAC DCT LESDO DCT ETINO DCT LASAT DCT DEVDI DCT RIPUS DCT RESIA DCT NIKOL DCT AIOSA DCT PAPIZ DCT DIMIS UL604 YNN UY121 AGH T6 EVIKO
Aircraft A320/M-SDE3FGHIRWY/LB1

Departure

Time 2026-04-26 08:33
Airport Bristol Airport (EGGD)

Arrival

Time 2026-04-26 11:49
Airport Skiathos Island National Airport (LGSK)
Time Latitude Longitude Altitude Speed Heading
2026-04-26 07:53 51.38546 -2.70493 610 ft 0 kts 356°
2026-04-26 08:22 51.38532 -2.70491 609 ft 4 kts 356°
2026-04-26 08:22 51.38507 -2.70489 615 ft 2 kts 356°
2026-04-26 08:23 51.38486 -2.70482 609 ft 4 kts 320°
2026-04-26 08:23 51.38476 -2.70451 622 ft 3 kts 266°
2026-04-26 08:23 51.38477 -2.70429 609 ft 0 kts 266°
2026-04-26 08:26 51.38476 -2.70436 621 ft 2 kts 266°
2026-04-26 08:26 51.38475 -2.70475 609 ft 5 kts 266°
2026-04-26 08:26 51.38475 -2.70484 609 ft 6 kts 266°
2026-04-26 08:26 51.38477 -2.70567 616 ft 9 kts 274°
2026-04-26 08:27 51.38479 -2.70693 620 ft 12 kts 265°
2026-04-26 08:27 51.38473 -2.70807 622 ft 8 kts 265°
2026-04-26 08:27 51.38470 -2.70875 625 ft 6 kts 265°
2026-04-26 08:27 51.38466 -2.70965 614 ft 10 kts 266°
2026-04-26 08:28 51.38460 -2.71085 624 ft 14 kts 266°
2026-04-26 08:28 51.38453 -2.71257 616 ft 17 kts 266°
2026-04-26 08:28 51.38445 -2.71480 615 ft 22 kts 266°
2026-04-26 08:28 51.38433 -2.71749 617 ft 26 kts 266°
2026-04-26 08:29 51.38432 -2.71995 606 ft 21 kts 270°
2026-04-26 08:29 51.38426 -2.72231 616 ft 21 kts 268°
2026-04-26 08:29 51.38418 -2.72455 612 ft 20 kts 266°
2026-04-26 08:29 51.38409 -2.72688 613 ft 22 kts 266°
2026-04-26 08:30 51.38401 -2.72954 604 ft 25 kts 266°
2026-04-26 08:30 51.38391 -2.73147 607 ft 4 kts 264°
2026-04-26 08:30 51.38391 -2.73151 608 ft 0 kts 264°
2026-04-26 08:31 51.38388 -2.73194 609 ft 9 kts 264°
2026-04-26 08:31 51.38371 -2.73286 623 ft 6 kts 239°
2026-04-26 08:31 51.38330 -2.73339 622 ft 11 kts 203°
2026-04-26 08:31 51.38250 -2.73336 630 ft 10 kts 164°
2026-04-26 08:32 51.38218 -2.73253 633 ft 13 kts 93°
2026-04-26 08:32 51.38231 -2.72823 630 ft 74 kts 86°
2026-04-26 08:32 51.38275 -2.71629 607 ft 138 kts 86°
2026-04-26 08:32 51.38351 -2.69941 1055 ft 151 kts 86°
2026-04-26 08:33 51.38431 -2.68342 1739 ft 150 kts 87°
2026-04-26 08:33 51.38511 -2.66645 2231 ft 159 kts 87°
2026-04-26 08:33 51.38601 -2.64821 2656 ft 169 kts 86°
2026-04-26 08:33 51.38704 -2.62913 3109 ft 175 kts 88°
2026-04-26 08:34 51.38795 -2.60878 3442 ft 191 kts 88°
2026-04-26 08:34 51.38821 -2.58672 3856 ft 208 kts 91°
2026-04-26 08:34 51.39050 -2.56255 4200 ft 235 kts 66°
2026-04-26 08:34 51.40161 -2.54201 4582 ft 260 kts 34°
2026-04-26 08:35 51.41746 -2.52691 5284 ft 269 kts 30°
2026-04-26 08:35 51.43392 -2.51217 6117 ft 273 kts 29°
2026-04-26 08:35 51.45063 -2.49734 6946 ft 276 kts 30°
2026-04-26 08:35 51.46733 -2.48156 7764 ft 280 kts 31°
2026-04-26 08:36 51.48400 -2.46508 8562 ft 284 kts 32°
2026-04-26 08:36 51.50064 -2.44767 9360 ft 288 kts 39°
2026-04-26 08:36 51.51338 -2.42288 10073 ft 292 kts 64°
2026-04-26 08:36 51.51883 -2.39146 10774 ft 297 kts 88°
2026-04-26 08:37 51.51761 -2.35761 11157 ft 315 kts 96°
2026-04-26 08:37 51.51521 -2.32150 11439 ft 335 kts 97°
2026-04-26 08:37 51.51251 -2.28387 12033 ft 342 kts 97°
2026-04-26 08:37 51.50972 -2.24572 12715 ft 346 kts 97°
2026-04-26 08:38 51.50694 -2.20712 13379 ft 351 kts 97°
2026-04-26 08:38 51.50416 -2.16800 14023 ft 355 kts 97°
2026-04-26 08:38 51.50135 -2.12844 14654 ft 359 kts 97°
2026-04-26 08:38 51.49853 -2.08838 15264 ft 363 kts 97°
2026-04-26 08:39 51.49569 -2.04786 15867 ft 367 kts 97°
2026-04-26 08:39 51.49281 -2.00700 16467 ft 371 kts 97°
2026-04-26 08:39 51.48989 -1.96557 17045 ft 375 kts 97°
2026-04-26 08:39 51.48698 -1.92430 17594 ft 379 kts 97°
2026-04-26 08:40 51.48428 -1.88629 18091 ft 383 kts 97°
2026-04-26 08:40 51.48121 -1.84368 18626 ft 386 kts 97°
2026-04-26 08:40 51.47808 -1.80073 19111 ft 390 kts 97°
2026-04-26 08:40 51.47487 -1.75731 19602 ft 394 kts 97°
2026-04-26 08:41 51.47162 -1.71359 20107 ft 396 kts 97°
2026-04-26 08:41 51.46792 -1.66966 20598 ft 399 kts 102°
2026-04-26 08:41 51.46211 -1.62598 21059 ft 403 kts 103°
2026-04-26 08:41 51.45613 -1.58195 21541 ft 406 kts 103°
2026-04-26 08:42 51.45007 -1.53774 21991 ft 409 kts 103°
2026-04-26 08:42 51.44397 -1.49313 22427 ft 413 kts 103°
2026-04-26 08:42 51.43779 -1.44801 22869 ft 416 kts 102°
2026-04-26 08:42 51.43159 -1.40292 23291 ft 419 kts 102°
2026-04-26 08:43 51.42529 -1.35713 23711 ft 422 kts 102°
2026-04-26 08:43 51.41891 -1.31109 24108 ft 425 kts 103°
2026-04-26 08:43 51.41245 -1.26473 24510 ft 428 kts 102°
2026-04-26 08:43 51.40587 -1.21801 24900 ft 431 kts 103°
2026-04-26 08:44 51.39926 -1.17109 25289 ft 434 kts 102°
2026-04-26 08:44 51.39482 -1.12314 25650 ft 436 kts 94°
2026-04-26 08:44 51.39251 -1.07460 26001 ft 439 kts 94°
2026-04-26 08:44 51.39013 -1.02577 26358 ft 441 kts 94°
2026-04-26 08:45 51.38764 -0.97670 26700 ft 444 kts 94°
2026-04-26 08:45 51.38507 -0.92738 27047 ft 446 kts 94°
2026-04-26 08:45 51.38248 -0.87774 27380 ft 449 kts 94°
2026-04-26 08:45 51.37983 -0.82777 27709 ft 451 kts 94°
2026-04-26 08:46 51.37714 -0.77769 28029 ft 453 kts 94°
2026-04-26 08:46 51.37442 -0.72731 28336 ft 456 kts 94°
2026-04-26 08:46 51.37168 -0.67657 28646 ft 458 kts 94°
2026-04-26 08:46 51.36888 -0.62572 28949 ft 460 kts 94°
2026-04-26 08:47 51.36605 -0.57455 29248 ft 462 kts 94°
2026-04-26 08:47 51.36321 -0.52332 29538 ft 465 kts 94°
2026-04-26 08:47 51.36034 -0.47157 29815 ft 467 kts 94°
2026-04-26 08:47 51.35745 -0.41971 30098 ft 469 kts 94°
2026-04-26 08:48 51.35453 -0.36771 30374 ft 471 kts 94°
2026-04-26 08:48 51.35156 -0.31548 30642 ft 473 kts 94°
2026-04-26 08:48 51.34856 -0.26296 30902 ft 474 kts 94°
2026-04-26 08:48 51.34554 -0.21113 31151 ft 476 kts 94°
2026-04-26 08:49 51.34239 -0.15767 31409 ft 477 kts 94°
2026-04-26 08:49 51.33924 -0.10484 31718 ft 477 kts 94°
2026-04-26 08:49 51.33607 -0.05213 32069 ft 475 kts 94°
2026-04-26 08:49 51.33258 0.00036 32393 ft 475 kts 98°
2026-04-26 08:50 51.32548 0.05186 32707 ft 474 kts 106°
2026-04-26 08:50 51.31429 0.10051 33125 ft 472 kts 112°
2026-04-26 08:50 51.30180 0.14962 33478 ft 470 kts 111°
2026-04-26 08:50 51.28952 0.19796 33805 ft 469 kts 111°
2026-04-26 08:51 51.26518 0.29345 34409 ft 467 kts 111°
2026-04-26 08:51 51.25270 0.34222 34705 ft 466 kts 111°
2026-04-26 08:51 51.24058 0.38949 34985 ft 466 kts 111°
2026-04-26 08:52 51.22817 0.43789 35252 ft 466 kts 111°
2026-04-26 08:52 51.21613 0.48488 35533 ft 464 kts 112°
2026-04-26 08:52 51.20387 0.53256 35800 ft 463 kts 112°
2026-04-26 08:52 51.19159 0.58012 36034 ft 463 kts 112°
2026-04-26 08:53 51.17928 0.62749 36266 ft 463 kts 112°
2026-04-26 08:53 51.16698 0.67481 36499 ft 462 kts 112°
2026-04-26 08:53 51.15469 0.72207 36716 ft 461 kts 112°
2026-04-26 08:53 51.14242 0.76926 36919 ft 460 kts 112°
2026-04-26 08:54 51.13018 0.81633 37134 ft 460 kts 112°
2026-04-26 08:54 51.11792 0.86327 37288 ft 460 kts 112°
2026-04-26 08:54 51.10565 0.91008 37330 ft 458 kts 112°
2026-04-26 08:55 51.08112 1.00326 37330 ft 455 kts 112°
2026-04-26 08:55 51.05662 1.09587 37326 ft 454 kts 112°
2026-04-26 08:56 51.03219 1.18820 37330 ft 452 kts 112°
2026-04-26 08:56 51.00779 1.28013 37332 ft 451 kts 112°
2026-04-26 08:57 50.98320 1.37180 37337 ft 451 kts 113°
2026-04-26 08:57 50.95857 1.46331 37338 ft 450 kts 113°
2026-04-26 08:58 50.93809 1.53919 37341 ft 450 kts 113°
2026-04-26 08:58 50.91348 1.63023 37336 ft 449 kts 113°
2026-04-26 08:59 50.88714 1.71983 37338 ft 448 kts 122°
2026-04-26 08:59 50.84783 1.79553 37336 ft 445 kts 137°
2026-04-26 09:00 50.80285 1.86288 37333 ft 445 kts 137°
2026-04-26 09:00 50.75803 1.93030 37327 ft 445 kts 137°
2026-04-26 09:01 50.71328 1.99776 37326 ft 444 kts 137°
2026-04-26 09:01 50.66853 2.06498 37328 ft 444 kts 137°
2026-04-26 09:02 50.62363 2.13188 37328 ft 445 kts 137°
2026-04-26 09:02 50.57865 2.19873 37328 ft 444 kts 137°
2026-04-26 09:03 50.53381 2.26546 37326 ft 444 kts 137°
2026-04-26 09:03 50.48893 2.33207 37322 ft 444 kts 137°
2026-04-26 09:04 50.44387 2.39841 37324 ft 444 kts 137°
2026-04-26 09:04 50.39880 2.46466 37321 ft 444 kts 137°
2026-04-26 09:05 50.35380 2.53079 37319 ft 443 kts 137°
2026-04-26 09:05 50.30907 2.59639 37315 ft 443 kts 137°
2026-04-26 09:06 50.26407 2.66216 37312 ft 443 kts 137°
2026-04-26 09:06 50.21902 2.72786 37313 ft 442 kts 138°
2026-04-26 09:07 50.17394 2.79328 37312 ft 443 kts 138°
2026-04-26 09:07 50.12886 2.85852 37308 ft 442 kts 138°
2026-04-26 09:08 50.08364 2.92383 37282 ft 445 kts 138°
2026-04-26 09:08 50.03819 2.98937 37275 ft 446 kts 138°
2026-04-26 09:09 49.99268 3.05494 37280 ft 446 kts 138°
2026-04-26 09:09 49.94707 3.12036 37289 ft 447 kts 138°
2026-04-26 09:10 49.90129 3.18575 37291 ft 447 kts 138°
2026-04-26 09:10 49.85548 3.25096 37298 ft 447 kts 138°
2026-04-26 09:11 49.81003 3.31652 37299 ft 447 kts 133°
2026-04-26 09:11 49.77085 3.39108 37301 ft 447 kts 129°
2026-04-26 09:12 49.73223 3.46633 37301 ft 447 kts 129°
2026-04-26 09:12 49.69356 3.54126 37295 ft 446 kts 129°
2026-04-26 09:13 49.65474 3.61613 37296 ft 447 kts 129°
2026-04-26 09:13 49.61589 3.69083 37297 ft 446 kts 129°
2026-04-26 09:14 49.57735 3.76501 37298 ft 446 kts 129°
2026-04-26 09:14 49.53844 3.83942 37297 ft 446 kts 129°
2026-04-26 09:15 49.49953 3.91370 37299 ft 445 kts 129°
2026-04-26 09:15 49.46041 3.98831 37291 ft 445 kts 129°
2026-04-26 09:16 49.42173 4.06177 37291 ft 445 kts 130°
2026-04-26 09:16 49.38274 4.13554 37289 ft 444 kts 130°
2026-04-26 09:17 49.34374 4.20913 37285 ft 445 kts 130°
2026-04-26 09:17 49.30472 4.28273 37285 ft 445 kts 130°
2026-04-26 09:18 49.26563 4.35621 37287 ft 444 kts 130°
2026-04-26 09:18 49.22651 4.42946 37288 ft 444 kts 130°
2026-04-26 09:19 49.18737 4.50244 37287 ft 444 kts 130°
2026-04-26 09:19 49.14821 4.57536 37289 ft 444 kts 130°
2026-04-26 09:20 49.10899 4.64824 37287 ft 444 kts 130°
2026-04-26 09:20 49.06977 4.72090 37284 ft 443 kts 130°
2026-04-26 09:21 49.03057 4.79339 37281 ft 443 kts 130°
2026-04-26 09:21 48.99140 4.86566 37279 ft 442 kts 130°
2026-04-26 09:22 48.95216 4.93777 37272 ft 442 kts 130°
2026-04-26 09:22 48.91290 5.00963 37271 ft 442 kts 131°
2026-04-26 09:23 48.87532 5.08388 37264 ft 444 kts 124°
2026-04-26 09:23 48.84137 5.16195 37259 ft 443 kts 124°
2026-04-26 09:24 48.80770 5.23932 37253 ft 442 kts 124°
2026-04-26 09:24 48.77368 5.31691 37250 ft 442 kts 124°
2026-04-26 09:25 48.73965 5.39450 37244 ft 442 kts 124°
2026-04-26 09:25 48.70571 5.47189 37235 ft 441 kts 125°
2026-04-26 09:26 48.67156 5.54908 37236 ft 441 kts 125°
2026-04-26 09:26 48.63744 5.62604 37239 ft 441 kts 125°
2026-04-26 09:27 48.60331 5.70292 37234 ft 440 kts 125°
2026-04-26 09:27 48.56918 5.77960 37244 ft 440 kts 125°
2026-04-26 09:28 48.53501 5.85623 37238 ft 441 kts 125°
2026-04-26 09:28 48.50064 5.93282 37253 ft 440 kts 126°
2026-04-26 09:29 48.46629 6.00913 37254 ft 440 kts 126°
2026-04-26 09:29 48.43194 6.08531 37258 ft 439 kts 126°
2026-04-26 09:30 48.39763 6.16140 37260 ft 439 kts 126°
2026-04-26 09:30 48.36337 6.23721 37254 ft 438 kts 126°
2026-04-26 09:31 48.32898 6.31280 37251 ft 437 kts 126°
2026-04-26 09:31 48.29462 6.38814 37245 ft 437 kts 126°
2026-04-26 09:32 48.26043 6.46300 37240 ft 437 kts 126°
2026-04-26 09:32 48.22603 6.53830 37237 ft 438 kts 126°
2026-04-26 09:33 48.19150 6.61345 37236 ft 437 kts 126°
2026-04-26 09:33 48.15695 6.68847 37235 ft 438 kts 126°
2026-04-26 09:34 48.12168 6.76296 37242 ft 438 kts 127°
2026-04-26 09:34 48.08588 6.83670 37245 ft 438 kts 128°
2026-04-26 09:35 48.05002 6.91043 37241 ft 438 kts 128°
2026-04-26 09:35 48.01436 6.98433 37246 ft 438 kts 128°
2026-04-26 09:36 47.97871 7.05809 37244 ft 438 kts 128°
2026-04-26 09:36 47.94297 7.13167 37248 ft 438 kts 128°
2026-04-26 09:37 47.90716 7.20515 37249 ft 438 kts 128°
2026-04-26 09:37 47.87136 7.27847 37244 ft 437 kts 128°
2026-04-26 09:38 47.83551 7.35161 37236 ft 437 kts 128°
2026-04-26 09:38 47.79965 7.42460 37238 ft 438 kts 128°
2026-04-26 09:39 47.76366 7.49762 37238 ft 438 kts 128°
2026-04-26 09:39 47.72756 7.57062 37246 ft 438 kts 128°
2026-04-26 09:40 47.69173 7.64296 37249 ft 438 kts 128°
2026-04-26 09:40 47.65565 7.71564 37245 ft 437 kts 128°
2026-04-26 09:41 47.61923 7.78878 37245 ft 438 kts 128°
2026-04-26 09:41 47.58304 7.86138 37247 ft 438 kts 128°
2026-04-26 09:42 47.54684 7.93393 37247 ft 438 kts 129°
2026-04-26 09:42 47.51053 8.00634 37232 ft 438 kts 129°
2026-04-26 09:43 47.47438 8.07806 37229 ft 438 kts 129°
2026-04-26 09:43 47.43791 8.15033 37225 ft 438 kts 129°
2026-04-26 09:44 47.40147 8.22247 37221 ft 438 kts 129°
2026-04-26 09:44 47.36501 8.29448 37212 ft 438 kts 129°
2026-04-26 09:45 47.32839 8.36651 37215 ft 439 kts 129°
2026-04-26 09:45 47.29169 8.43854 37214 ft 439 kts 129°
2026-04-26 09:46 47.25496 8.51038 37219 ft 439 kts 129°
2026-04-26 09:46 47.22486 8.57053 37219 ft 439 kts 128°
2026-04-26 09:47 47.18916 8.64345 37213 ft 439 kts 128°
2026-04-26 09:47 47.15342 8.71624 37206 ft 439 kts 128°
2026-04-26 09:48 47.11737 8.78870 37206 ft 439 kts 128°
2026-04-26 09:48 47.08117 8.86107 37208 ft 440 kts 128°
2026-04-26 09:49 47.04508 8.93347 37208 ft 440 kts 128°
2026-04-26 09:49 47.00894 9.00574 37206 ft 440 kts 128°
2026-04-26 09:50 46.97264 9.07785 37209 ft 440 kts 128°
2026-04-26 09:50 46.93622 9.14992 37209 ft 440 kts 128°
2026-04-26 09:51 46.90012 9.22137 37212 ft 440 kts 128°
2026-04-26 09:51 46.86378 9.29336 37212 ft 440 kts 128°
2026-04-26 09:52 46.82739 9.36515 37213 ft 440 kts 128°
2026-04-26 09:52 46.77260 9.47261 37218 ft 440 kts 128°
2026-04-26 09:53 46.73577 9.54467 37220 ft 440 kts 128°
2026-04-26 09:53 46.69935 9.61577 37226 ft 440 kts 128°
2026-04-26 09:54 46.66277 9.68706 37235 ft 439 kts 129°
2026-04-26 09:54 46.62613 9.75810 37241 ft 439 kts 129°
2026-04-26 09:55 46.58938 9.82917 37249 ft 439 kts 129°
2026-04-26 09:55 46.55312 9.89931 37269 ft 440 kts 129°
2026-04-26 09:56 46.51641 9.97024 37273 ft 439 kts 129°
2026-04-26 09:56 46.47954 10.04085 37271 ft 439 kts 129°
2026-04-26 09:57 46.44119 10.10956 37265 ft 438 kts 132°
2026-04-26 09:57 46.40168 10.17612 37264 ft 438 kts 133°
2026-04-26 09:58 46.36204 10.24292 37250 ft 437 kts 132°
2026-04-26 09:58 46.32275 10.31015 37246 ft 438 kts 132°
2026-04-26 09:59 46.28342 10.37758 37249 ft 439 kts 132°
2026-04-26 09:59 46.24398 10.44491 37249 ft 439 kts 132°
2026-04-26 10:00 46.20439 10.51196 37244 ft 439 kts 132°
2026-04-26 10:00 46.16480 10.57902 37233 ft 439 kts 132°
2026-04-26 10:01 46.12522 10.64595 37220 ft 439 kts 132°
2026-04-26 10:01 46.08555 10.71283 37213 ft 439 kts 132°
2026-04-26 10:02 46.04576 10.77962 37205 ft 440 kts 132°
2026-04-26 10:02 46.00592 10.84643 37202 ft 439 kts 132°
2026-04-26 10:03 45.96612 10.91321 37196 ft 440 kts 131°
2026-04-26 10:03 45.92626 10.97983 37196 ft 440 kts 131°
2026-04-26 10:04 45.88633 11.04634 37193 ft 440 kts 131°
2026-04-26 10:04 45.84627 11.11286 37195 ft 441 kts 131°
2026-04-26 10:05 45.80637 11.17907 37194 ft 441 kts 131°
2026-04-26 10:05 45.76621 11.24549 37190 ft 441 kts 131°
2026-04-26 10:06 45.72599 11.31166 37174 ft 441 kts 131°
2026-04-26 10:06 45.68573 11.37804 37175 ft 442 kts 131°
2026-04-26 10:07 45.64542 11.44436 37167 ft 442 kts 131°
2026-04-26 10:07 45.60494 11.51065 37156 ft 443 kts 131°
2026-04-26 10:08 45.56447 11.57688 37147 ft 442 kts 131°
2026-04-26 10:08 45.52397 11.64290 37144 ft 443 kts 131°
2026-04-26 10:09 45.48328 11.70885 37137 ft 443 kts 132°
2026-04-26 10:09 45.44260 11.77476 37124 ft 442 kts 132°
2026-04-26 10:10 45.40200 11.84051 37113 ft 441 kts 131°
2026-04-26 10:10 45.36143 11.90618 37107 ft 442 kts 132°
2026-04-26 10:11 45.32071 11.97176 37103 ft 442 kts 132°
2026-04-26 10:11 45.27998 12.03723 37097 ft 443 kts 131°
2026-04-26 10:12 45.23911 12.10272 37106 ft 443 kts 132°
2026-04-26 10:12 45.19824 12.16801 37097 ft 443 kts 132°
2026-04-26 10:13 45.15734 12.23336 37098 ft 443 kts 131°
2026-04-26 10:13 45.11642 12.29857 37110 ft 443 kts 132°
2026-04-26 10:14 45.07546 12.36365 37102 ft 442 kts 132°
2026-04-26 10:14 45.03478 12.42810 37102 ft 442 kts 132°
2026-04-26 10:15 44.99375 12.49294 37101 ft 442 kts 132°
2026-04-26 10:15 44.95270 12.55770 37080 ft 443 kts 132°
2026-04-26 10:16 44.91171 12.62236 37080 ft 442 kts 132°
2026-04-26 10:16 44.87060 12.68689 37080 ft 442 kts 132°
2026-04-26 10:17 44.82939 12.75128 37083 ft 442 kts 132°
2026-04-26 10:17 44.78821 12.81561 37090 ft 443 kts 132°
2026-04-26 10:18 44.74707 12.87991 37098 ft 441 kts 132°
2026-04-26 10:18 44.70589 12.94394 37081 ft 442 kts 133°
2026-04-26 10:19 44.66460 13.00791 37084 ft 442 kts 132°
2026-04-26 10:19 44.62331 13.07195 37093 ft 442 kts 132°
2026-04-26 10:20 44.58898 13.12506 37103 ft 442 kts 133°
2026-04-26 10:20 44.54056 13.19962 37084 ft 443 kts 133°
2026-04-26 10:21 44.49908 13.26334 37099 ft 442 kts 133°
2026-04-26 10:21 44.45757 13.32705 37095 ft 443 kts 133°
2026-04-26 10:22 44.41606 13.39073 37092 ft 444 kts 133°
2026-04-26 10:22 44.37439 13.45446 37095 ft 444 kts 133°
2026-04-26 10:23 44.33266 13.51802 37093 ft 444 kts 133°
2026-04-26 10:23 44.29096 13.58132 37086 ft 443 kts 133°
2026-04-26 10:24 44.24922 13.64465 37080 ft 443 kts 133°
2026-04-26 10:24 44.20767 13.70811 37097 ft 443 kts 132°
2026-04-26 10:25 44.16775 13.77349 37083 ft 443 kts 130°
2026-04-26 10:25 44.12851 13.83965 37098 ft 443 kts 130°
2026-04-26 10:26 44.08890 13.90548 37100 ft 444 kts 130°
2026-04-26 10:26 44.04892 13.97088 37089 ft 443 kts 131°
2026-04-26 10:27 44.00913 14.03564 37091 ft 443 kts 131°
2026-04-26 10:27 43.96911 14.10091 37101 ft 444 kts 131°
2026-04-26 10:28 43.92910 14.16613 37106 ft 443 kts 131°
2026-04-26 10:28 43.88909 14.23114 37101 ft 444 kts 131°
2026-04-26 10:29 43.84897 14.29608 37095 ft 443 kts 131°
2026-04-26 10:29 43.80886 14.36095 37088 ft 443 kts 131°
2026-04-26 10:30 43.76876 14.42567 37095 ft 443 kts 131°
2026-04-26 10:30 43.72855 14.49033 37096 ft 443 kts 131°
2026-04-26 10:31 43.68840 14.55489 37098 ft 443 kts 131°
2026-04-26 10:31 43.64815 14.61937 37093 ft 443 kts 131°
2026-04-26 10:32 43.60785 14.68370 37090 ft 443 kts 131°
2026-04-26 10:32 43.56751 14.74799 37084 ft 443 kts 131°
2026-04-26 10:33 43.52723 14.81224 37096 ft 443 kts 131°
2026-04-26 10:33 43.48688 14.87634 37096 ft 443 kts 131°
2026-04-26 10:34 43.45330 14.92953 37097 ft 443 kts 131°
2026-04-26 10:34 43.41286 14.99341 37083 ft 443 kts 132°
2026-04-26 10:35 43.36578 15.06747 37084 ft 443 kts 132°
2026-04-26 10:35 43.32531 15.13126 37094 ft 443 kts 131°
2026-04-26 10:36 43.29140 15.18462 37098 ft 443 kts 132°
2026-04-26 10:36 43.25109 15.24784 37084 ft 443 kts 132°
2026-04-26 10:37 43.21045 15.31129 37092 ft 443 kts 132°
2026-04-26 10:37 43.16985 15.37467 37099 ft 443 kts 132°
2026-04-26 10:38 43.12920 15.43800 37101 ft 443 kts 132°
2026-04-26 10:38 43.08847 15.50124 37094 ft 443 kts 132°
2026-04-26 10:39 43.04764 15.56449 37103 ft 443 kts 132°
2026-04-26 10:39 43.00682 15.62763 37102 ft 443 kts 133°
2026-04-26 10:40 42.96612 15.69065 37103 ft 442 kts 132°
2026-04-26 10:40 42.92532 15.75361 37101 ft 443 kts 133°
2026-04-26 10:41 42.88448 15.81632 37094 ft 443 kts 133°
2026-04-26 10:41 42.84347 15.87901 37101 ft 443 kts 133°
2026-04-26 10:42 42.80249 15.94163 37102 ft 442 kts 133°
2026-04-26 10:42 42.76159 16.00424 37104 ft 443 kts 133°
2026-04-26 10:43 42.72061 16.06673 37098 ft 443 kts 133°
2026-04-26 10:43 42.67953 16.12920 37109 ft 443 kts 133°
2026-04-26 10:44 42.63835 16.19152 37097 ft 443 kts 133°
2026-04-26 10:44 42.59745 16.25340 37101 ft 444 kts 133°
2026-04-26 10:45 42.55623 16.31581 37102 ft 444 kts 133°
2026-04-26 10:45 42.51502 16.37800 37096 ft 443 kts 133°
2026-04-26 10:46 42.47371 16.44003 37104 ft 443 kts 134°
2026-04-26 10:46 42.43232 16.50199 37107 ft 444 kts 133°
2026-04-26 10:47 42.39101 16.56402 37103 ft 443 kts 133°
2026-04-26 10:47 42.34967 16.62587 37111 ft 443 kts 134°
2026-04-26 10:48 42.30826 16.68767 37109 ft 443 kts 134°
2026-04-26 10:48 42.26683 16.74934 37101 ft 444 kts 134°
2026-04-26 10:49 42.22523 16.81107 37105 ft 445 kts 134°
2026-04-26 10:49 42.18362 16.87281 37106 ft 444 kts 134°
2026-04-26 10:50 42.14904 16.92393 37107 ft 444 kts 134°
2026-04-26 10:50 42.10038 16.99571 37098 ft 444 kts 134°
2026-04-26 10:51 42.03789 17.08776 37081 ft 444 kts 134°
2026-04-26 10:52 41.99610 17.14908 37080 ft 445 kts 134°
2026-04-26 10:52 41.95423 17.21040 37104 ft 445 kts 134°
2026-04-26 10:53 41.91276 17.27199 37096 ft 445 kts 132°
2026-04-26 10:53 41.87393 17.33684 37094 ft 446 kts 129°
2026-04-26 10:54 41.81718 17.43572 37101 ft 446 kts 130°
2026-04-26 10:54 41.77863 17.50090 37097 ft 446 kts 130°
2026-04-26 10:55 41.73966 17.56564 37100 ft 446 kts 130°
2026-04-26 10:55 41.70068 17.63040 37100 ft 447 kts 130°
2026-04-26 10:56 41.66179 17.69521 37102 ft 447 kts 130°
2026-04-26 10:56 41.62287 17.75999 37092 ft 446 kts 130°
2026-04-26 10:57 41.58425 17.82421 37091 ft 447 kts 130°
2026-04-26 10:57 41.54533 17.88894 37104 ft 447 kts 130°
2026-04-26 10:58 41.50624 17.95339 37094 ft 447 kts 131°
2026-04-26 10:58 41.46710 18.01777 37101 ft 447 kts 130°
2026-04-26 10:59 41.42802 18.08222 37104 ft 447 kts 130°
2026-04-26 10:59 41.38879 18.14655 37101 ft 447 kts 131°
2026-04-26 11:00 41.34953 18.21091 37105 ft 448 kts 130°
2026-04-26 11:00 41.31026 18.27526 37111 ft 448 kts 131°
2026-04-26 11:01 41.27100 18.33936 37103 ft 446 kts 131°
2026-04-26 11:01 41.23179 18.40328 37110 ft 446 kts 131°
2026-04-26 11:02 41.19250 18.46711 37110 ft 446 kts 131°
2026-04-26 11:02 41.15343 18.53044 37106 ft 446 kts 131°
2026-04-26 11:03 41.11406 18.59419 37111 ft 446 kts 131°
2026-04-26 11:03 41.07472 18.65781 37112 ft 446 kts 131°
2026-04-26 11:04 41.03535 18.72128 37106 ft 445 kts 131°
2026-04-26 11:04 40.99596 18.78457 37108 ft 445 kts 131°
2026-04-26 11:05 40.95652 18.84781 37104 ft 445 kts 131°
2026-04-26 11:05 40.91698 18.91092 37106 ft 446 kts 131°
2026-04-26 11:06 40.88519 18.96458 37104 ft 446 kts 123°
2026-04-26 11:06 40.84615 19.04537 37110 ft 446 kts 124°
2026-04-26 11:07 40.81261 19.11416 37093 ft 445 kts 124°
2026-04-26 11:07 40.77904 19.18277 37083 ft 446 kts 124°
2026-04-26 11:08 40.74539 19.25144 37097 ft 446 kts 124°
2026-04-26 11:08 40.71168 19.32010 37083 ft 446 kts 124°
2026-04-26 11:09 40.67789 19.38867 37098 ft 446 kts 124°
2026-04-26 11:09 40.64420 19.45718 37099 ft 445 kts 123°
2026-04-26 11:10 40.61048 19.52559 37090 ft 445 kts 124°
2026-04-26 11:10 40.57680 19.59337 37083 ft 446 kts 124°
2026-04-26 11:11 40.54290 19.66159 37102 ft 445 kts 123°
2026-04-26 11:11 40.50903 19.72965 37088 ft 445 kts 124°
2026-04-26 11:12 40.47517 19.79762 37101 ft 444 kts 123°
2026-04-26 11:12 40.44136 19.86553 37092 ft 444 kts 123°
2026-04-26 11:13 40.40746 19.93326 37095 ft 443 kts 123°
2026-04-26 11:13 40.37352 20.00074 37101 ft 443 kts 123°
2026-04-26 11:14 40.33962 20.06820 37083 ft 443 kts 123°
2026-04-26 11:14 40.31114 20.12478 37101 ft 444 kts 123°
2026-04-26 11:15 40.27163 20.20307 37100 ft 443 kts 123°
2026-04-26 11:15 40.23762 20.27032 37084 ft 443 kts 123°
2026-04-26 11:16 40.20361 20.33743 37081 ft 442 kts 123°
2026-04-26 11:16 40.16954 20.40454 37081 ft 443 kts 123°
2026-04-26 11:17 40.13544 20.47159 37082 ft 443 kts 124°
2026-04-26 11:17 40.10113 20.53856 37080 ft 443 kts 125°
2026-04-26 11:18 40.05885 20.59650 37077 ft 441 kts 144°
2026-04-26 11:18 40.00561 20.63542 37072 ft 439 kts 156°
2026-04-26 11:19 39.95020 20.66909 37078 ft 440 kts 156°
2026-04-26 11:19 39.89470 20.70299 37083 ft 440 kts 155°
2026-04-26 11:20 39.84863 20.73111 37087 ft 440 kts 156°
2026-04-26 11:20 39.78377 20.77047 37081 ft 440 kts 155°
2026-04-26 11:21 39.73166 20.81059 37080 ft 440 kts 139°
2026-04-26 11:21 39.71006 20.83878 37078 ft 439 kts 128°
2026-04-26 11:21 39.69271 20.87123 37074 ft 438 kts 118°
2026-04-26 11:22 39.68001 20.90707 37072 ft 436 kts 107°
2026-04-26 11:22 39.67107 20.94461 37068 ft 436 kts 105°
2026-04-26 11:22 39.65332 21.01999 37064 ft 437 kts 105°
2026-04-26 11:23 39.63531 21.09528 37067 ft 437 kts 105°
2026-04-26 11:23 39.61739 21.17065 37071 ft 437 kts 105°
2026-04-26 11:24 39.60221 21.23455 37073 ft 438 kts 105°
2026-04-26 11:24 39.58437 21.30887 37071 ft 438 kts 106°
2026-04-26 11:25 39.56619 21.38421 37075 ft 438 kts 105°
2026-04-26 11:25 39.54804 21.45938 37073 ft 437 kts 105°
2026-04-26 11:26 39.52983 21.53460 36908 ft 439 kts 105°
2026-04-26 11:26 39.52067 21.57260 36281 ft 441 kts 105°
2026-04-26 11:26 39.51165 21.60986 35786 ft 438 kts 105°
2026-04-26 11:27 39.50255 21.64738 35251 ft 436 kts 105°
2026-04-26 11:27 39.49347 21.68470 34715 ft 434 kts 105°
2026-04-26 11:27 39.48442 21.72183 34184 ft 432 kts 105°
2026-04-26 11:27 39.47541 21.75878 33658 ft 429 kts 105°
2026-04-26 11:28 39.46641 21.79548 33134 ft 427 kts 105°
2026-04-26 11:28 39.45742 21.83203 32606 ft 425 kts 105°
2026-04-26 11:28 39.44849 21.86834 32087 ft 422 kts 105°
2026-04-26 11:28 39.43961 21.90437 31581 ft 420 kts 105°
2026-04-26 11:29 39.43077 21.94027 31070 ft 417 kts 105°
2026-04-26 11:29 39.42198 21.97594 30581 ft 414 kts 105°
2026-04-26 11:29 39.41324 22.01135 30095 ft 412 kts 105°
2026-04-26 11:29 39.40455 22.04644 29635 ft 408 kts 105°
2026-04-26 11:30 39.39592 22.08128 29168 ft 405 kts 105°
2026-04-26 11:30 39.39025 22.10417 28867 ft 402 kts 105°
2026-04-26 11:30 39.37888 22.14988 28279 ft 397 kts 105°
2026-04-26 11:30 39.37046 22.18375 27831 ft 394 kts 105°
2026-04-26 11:31 39.36214 22.21732 27384 ft 391 kts 105°
2026-04-26 11:31 39.35388 22.25055 26937 ft 387 kts 105°
2026-04-26 11:31 39.34565 22.28353 26474 ft 384 kts 105°
2026-04-26 11:31 39.33747 22.31621 26019 ft 381 kts 106°
2026-04-26 11:32 39.32933 22.34871 25546 ft 379 kts 105°
2026-04-26 11:32 39.32125 22.38089 25073 ft 376 kts 105°
2026-04-26 11:32 39.31319 22.41291 24582 ft 374 kts 105°
2026-04-26 11:32 39.30520 22.44470 24109 ft 372 kts 106°
2026-04-26 11:33 39.29725 22.47640 23628 ft 370 kts 105°
2026-04-26 11:33 39.28933 22.50793 23142 ft 369 kts 106°
2026-04-26 11:33 39.28139 22.53933 22678 ft 368 kts 106°
2026-04-26 11:33 39.27348 22.57061 22204 ft 366 kts 106°
2026-04-26 11:34 39.26561 22.60179 21746 ft 364 kts 106°
2026-04-26 11:34 39.25777 22.63280 21294 ft 362 kts 106°
2026-04-26 11:34 39.25008 22.66320 20847 ft 361 kts 106°
2026-04-26 11:34 39.24227 22.69391 20398 ft 359 kts 106°
2026-04-26 11:35 39.23448 22.72445 19952 ft 357 kts 106°
2026-04-26 11:35 39.22672 22.75482 19524 ft 356 kts 106°
2026-04-26 11:35 39.21923 22.78509 19058 ft 353 kts 102°
2026-04-26 11:35 39.21560 22.81612 18641 ft 348 kts 91°
2026-04-26 11:36 39.21438 22.84717 18214 ft 346 kts 91°
2026-04-26 11:36 39.21316 22.87805 17794 ft 344 kts 91°
2026-04-26 11:36 39.21194 22.90873 17380 ft 342 kts 91°
2026-04-26 11:36 39.21071 22.93919 16966 ft 340 kts 91°
2026-04-26 11:37 39.20944 22.96957 16570 ft 338 kts 91°
2026-04-26 11:37 39.20815 22.99973 16175 ft 336 kts 91°
2026-04-26 11:37 39.20687 23.02977 15776 ft 335 kts 91°
2026-04-26 11:37 39.20557 23.05970 15383 ft 333 kts 91°
2026-04-26 11:38 39.20427 23.08946 15003 ft 331 kts 92°
2026-04-26 11:38 39.20299 23.11899 14614 ft 330 kts 92°
2026-04-26 11:38 39.20175 23.14849 14220 ft 329 kts 92°
2026-04-26 11:38 39.20050 23.17796 13834 ft 328 kts 92°
2026-04-26 11:39 39.19924 23.20729 13453 ft 327 kts 92°
2026-04-26 11:39 39.19797 23.23650 13072 ft 326 kts 92°
2026-04-26 11:39 39.19666 23.26562 12665 ft 325 kts 92°
2026-04-26 11:39 39.19534 23.29468 12273 ft 324 kts 92°
2026-04-26 11:40 39.19404 23.32364 11870 ft 323 kts 92°
2026-04-26 11:40 39.19276 23.35252 11470 ft 322 kts 92°
2026-04-26 11:40 39.19146 23.38124 11078 ft 320 kts 92°
2026-04-26 11:40 39.19018 23.40985 10657 ft 320 kts 93°
2026-04-26 11:41 39.18890 23.43842 10245 ft 318 kts 93°
2026-04-26 11:42 39.14270 23.58879 6666 ft 265 kts 192°
2026-04-26 11:43 39.12556 23.58069 6135 ft 259 kts 207°
2026-04-26 11:43 39.11021 23.57094 6098 ft 236 kts 209°
2026-04-26 11:43 39.09621 23.56162 5992 ft 222 kts 209°
2026-04-26 11:43 39.08288 23.55268 5869 ft 212 kts 210°
2026-04-26 11:44 39.06978 23.54390 5488 ft 213 kts 210°
2026-04-26 11:44 39.05628 23.53486 4829 ft 224 kts 209°
2026-04-26 11:44 39.04213 23.52548 4208 ft 231 kts 209°
2026-04-26 11:44 39.02799 23.51517 3589 ft 235 kts 222°
2026-04-26 11:45 39.02011 23.49770 3186 ft 223 kts 265°
2026-04-26 11:45 39.02270 23.47921 2970 ft 205 kts 303°
2026-04-26 11:45 39.03279 23.46731 2785 ft 196 kts 336°
2026-04-26 11:45 39.04585 23.46507 2572 ft 191 kts
2026-04-26 11:46 39.05868 23.46893 2300 ft 188 kts 12°
2026-04-26 11:46 39.07135 23.47265 2028 ft 183 kts 12°
2026-04-26 11:46 39.08337 23.47612 1819 ft 171 kts 13°
2026-04-26 11:46 39.09455 23.47938 1618 ft 160 kts 13°
2026-04-26 11:47 39.10496 23.48233 1396 ft 148 kts 13°
2026-04-26 11:47 39.11467 23.48508 1183 ft 140 kts 12°
2026-04-26 11:47 39.12406 23.48769 981 ft 137 kts 13°
2026-04-26 11:47 39.13348 23.48932 800 ft 136 kts
2026-04-26 11:48 39.14289 23.48961 653 ft 135 kts
2026-04-26 11:48 39.15202 23.49243 450 ft 136 kts 23°
2026-04-26 11:48 39.16086 23.49649 274 ft 135 kts 14°
2026-04-26 11:48 39.16975 23.50041 58 ft 134 kts 20°
2026-04-26 11:49 39.17785 23.50402 38 ft 106 kts 19°
2026-04-26 11:49 39.18238 23.50604 56 ft 39 kts 19°
2026-04-26 11:49 39.18398 23.50661 52 ft 10 kts 339°
2026-04-26 11:49 39.18416 23.50675 58 ft 2 kts 108°
2026-04-26 11:50 39.18389 23.50668 55 ft 11 kts 199°
2026-04-26 11:50 39.18301 23.50629 54 ft 14 kts 199°
2026-04-26 11:50 39.18221 23.50594 50 ft 11 kts 199°
2026-04-26 11:50 39.18148 23.50561 48 ft 12 kts 199°
2026-04-26 11:51 39.18063 23.50523 48 ft 14 kts 199°
2026-04-26 11:51 39.17978 23.50484 45 ft 12 kts 199°
2026-04-26 11:51 39.17936 23.50422 40 ft 7 kts 254°
2026-04-26 11:51 39.17927 23.50384 42 ft 1 kts 252°
2026-04-26 11:52 39.17926 23.50384 42 ft 0 kts 252°
2026-04-26 11:53 39.17926 23.50382 42 ft 2 kts 252°
2026-04-26 11:53 39.17917 23.50349 41 ft 5 kts 247°
2026-04-26 11:53 39.17881 23.50316 40 ft 7 kts 199°
2026-04-26 11:54 39.17811 23.50291 39 ft 0 kts 196°
2026-04-26 11:54 39.17810 23.50291 39 ft 0 kts 196°
2026-04-26 11:55 39.17808 23.50273 39 ft 5 kts 280°
2026-04-26 11:55 39.17828 23.50241 39 ft 4 kts 292°
2026-04-26 11:55 39.17836 23.50210 37 ft 3 kts 289°
2026-04-26 11:55 39.17837 23.50206 39 ft 0 kts 289°